Regional Weather Roundup
Issued by NWS

Home | Current Version | Previous Version | Text Only | Print | Product List | Glossary Off
Versions: 1 2 3 4 5 6 7 8 9 10 11 12 13 14 15 16 17 18 19 20 21 22 23 24 25 26 27

000
ASUS45 KBOU 230107
RWRCO

WEATHER ROUNDUP FOR COLORADO
NATIONAL WEATHER SERVICE DENVER/BOULDER CO
600 PM MST SUN JAN 22 2017

NOTE: "FAIR" INDICATES FEW OR NO CLOUDS BELOW 12000 FEET WITH NO
SIGNIFICANT WEATHER AND/OR OBSTRUCTIONS TO VISIBILITY.

COZ001>005-013-030-031-230200-
...NORTHWEST COLORADO...

CITY           SKY/WX    TMP DP  RH WIND       PRES   REMARKS
CRAIG          CLOUDY    27  16  63 NE5       29.94S WCI  22
HAYDEN         MOCLDY    25  12  58 NE3       29.93S
MEEKER         CLOUDY    31  18  58 SW15      29.95S WCI  20
MOUNT WERNER   NOT AVBL
STEAMBOAT SPGS CLOUDY    24  13  64 CALM      29.93F
WALDEN           N/A     18   5  57 SE9       29.92R WCI   6
$$

COZ006>008-011-230200-
...WEST CENTRAL VALLEYS...

CITY           SKY/WX    TMP DP  RH WIND       PRES   REMARKS
GRAND JUNCTION CLOUDY    37  23  56 S15G22    29.98F
MONTROSE       CLOUDY    34  22  61 NE5       30.02F WCI  30
EAGLE          CLOUDY    28  18  64 E7        29.98S WCI  21
RIFLE          CLOUDY    34  21  59 CALM      29.98F
DELTA          CLOUDY    35  27  74 N15       30.04F WCI  25
NUCLA          LGT SNOW  30  28  93 NE7       30.07F WCI  23
$$

COZ017>023-064>068-230200-
...SOUTHWEST COLORADO...

CITY           SKY/WX    TMP DP  RH WIND       PRES   REMARKS
DURANGO        FLURRIES  25  20  81 NE6       30.10R WCI  18
CORTEZ         CLOUDY    30  26  85 CALM      30.08S
PAGOSA SPRINGS CLOUDY    27  19  72 CALM      30.09S
TELLURIDE      NOT AVBL
WOLF CREEK PAS CLOUDY     9   9 100 SW17      30.04S WCI -10
$$

COZ009-010-012-014-032>034-037-058>063-230200-
...CENTRAL COLORADO...

CITY           SKY/WX    TMP DP  RH WIND       PRES   REMARKS
ASPEN          CLOUDY    25  15  66 CALM      29.94F
BUENA VISTA    CLOUDY    29   4  35 SE5       29.96R WCI  23
COPPER MTN     CLOUDY    18   0  45 MISG      29.92R
BERTHOUD PASS  CLOUDY     9  -4  56 MISG      29.86
COTTONWOOD PAS CLOUDY    27  10  50 W21G37    29.93S HAZE    WCI  13
GUNNISON       FLURRIES  19  13  77 S3        30.05R
KREMMLING      MOCLDY    32  12  43 S9G22     29.96R WCI  24
LEADVILLE      CLOUDY    19   4  51 NE5       29.92R WCI  12
MONARCH PASS   CLOUDY     9   5  85 SW6       30.05S WCI  -1
SALIDA         CLOUDY    31  10  42 W9        30.04R WCI  23
SUNLIGHT       SNOW      12  10  92 SW10G22   29.95F VSB 1/2 WCI  -1
WILKERSON PASS CLOUDY    14   0  52 SW22G28   29.90R WCI  -4
$$

COZ069>075-230200-
...SAN LUIS VALLEY/SANGRE DE CRISTO MOUNTAINS...

CITY           SKY/WX    TMP DP  RH WIND       PRES   REMARKS
ALAMOSA        FAIR      24  16  71 S5        30.03S WCI  18
LA VETA PASS   MOCLDY    19   5  53 NE39G47   29.94R WCI  -2
SAGUACHE       CLOUDY    23  14  68 NE6       30.05R WCI  16
$$

COZ035-036-038>040-230200-
...NORTHERN COLORADO FRONT RANGE...

CITY           SKY/WX    TMP DP  RH WIND       PRES   REMARKS
DENVER INTL AP MOCLDY    28  17  63 SE9       29.88R WCI  19
DMNS CITY PARK   N/A     38   6  26 E8G20     29.87S
AURORA         MOCLDY    30  14  52 SE12      29.88R WCI  20
FRONT RANGE AP MOCLDY    32  21  64 SE9       29.89S WCI  24
ERIE MUNI ARPT FAIR      35  18  49 SE10      29.88R WCI  28
BOULDER MUN AP FAIR      37  10  32 E5        29.87R
CENTENNIAL     MOCLDY    35   8  32 SE8       29.87S WCI  29
BROOMFIELD     MOCLDY    37   7  28 SE3       29.88R
FORT COLLINS   FAIR      34  14  44 SE9       29.89R WCI  26
LONGMONT       FAIR      39  17  39 SE6       29.91R
$$

COZ041-046-047-076>085-087-088-230200-
...PIKES PEAK/PALMER DIVIDE AND SOUTHERN FOOTHILLS...

CITY           SKY/WX    TMP DP  RH WIND       PRES   REMARKS
COLO. SPRINGS  MOCLDY    34  13  41 SE13      29.92R WCI  25
A. F. ACADEMY  FAIR      33   4  29 S7        29.90R WCI  27
SCHRIEVER AFB  NOT AVBL
ELLICOTT       FAIR     N/A N/A N/A S9        29.91S
FALCON         FAIR      30  13  50 S8        29.92S WCI  22
FORT CARSON    NOT AVBL
LIMON          FAIR      23  18  81 CALM      29.92R
MONUMENT HILL  FAIR      28  12  50 S10       29.91S WCI  19
TRINIDAD       FAIR      31  17  56 S7        29.95R WCI  24
$$

COZ042>045-048>051-090-091-230200-
...NORTHEAST COLORADO...

CITY           SKY/WX    TMP DP  RH WIND       PRES   REMARKS
GREELEY ARPT   FAIR      35  16  45 SE8       29.90R WCI  29
AKRON          FAIR      33  15  47 CALM      29.90S
BURLINGTON     FAIR      33  26  75 SW6       29.92F WCI  28
WRAY           NOT AVBL
STERLING       FAIR      34  18  51 N5        29.90R WCI  30
HOLYOKE        FAIR      36  27  69 W3        29.90S
FORT MORGAN    FAIR      36  16  44 NE5       29.90S
$$

COZ086-089-092>099-230200-
...SOUTHEAST COLORADO...

CITY           SKY/WX    TMP DP  RH WIND       PRES   REMARKS
PUEBLO         FAIR      39  20  46 E7        29.91S
LA JUNTA       FAIR      38  20  48 S8        29.94R
LAMAR          FAIR      33  25  72 SW5       29.93S WCI  29
SPRINGFIELD      N/A     31  19  61 W3        29.97R
$$




USA.gov is the U.S. government's official web portal to all federal, state and local government web resources and services.